Simultaneous Nadir Overpasses (SNOs) Predictions

Prediction of SNOs between AQUA and METOP-B Satellite Orbit:

Table of predicted SNOs for the next 14.0 days since TLE Epoch: 2/17/2024
Index Date (AQUA) Time (AQUA) Lat,Lon (AQUA) SZA (AQUA ) Date (METOP-B) Time (METOP-B) Lat,Lon (METOP-B) SZA (METOP-B ) Distance(km) Time Diff (sec)
1 02/17/2024 11:30:10 75.27, 4.47 87.34 02/17/2024 11:28:57 75.19, 4.02 87.29 15.53 73
2 02/17/2024 12:19:34 -75.37, 171.84 92.56 02/17/2024 12:19:35 -75.38, 171.90 92.56 1.84 1
3 02/17/2024 13:09:00 75.47, -20.80 87.54 02/17/2024 13:10:12 75.51, -20.37 87.56 12.43 72
4 02/20/2024 03:41:53 75.05, 122.17 86.16 02/20/2024 03:40:44 74.98, 120.47 86.15 49.63 69
5 02/20/2024 04:31:21 -75.35, -71.01 93.53 02/20/2024 04:31:18 -75.36, -71.10 93.52 2.76 3
6 02/20/2024 05:20:46 75.41, 96.49 86.52 02/20/2024 05:21:56 75.44, 96.47 86.55 3.52 70
7 02/22/2024 19:53:35 74.91,-120.37 85.05 02/22/2024 19:52:28 74.85,-122.84 85.07 71.88 67
8 02/22/2024 20:43:06 -75.36, 46.06 94.49 02/22/2024 20:42:59 -75.38, 46.01 94.47 1.96 7
9 02/22/2024 21:32:31 75.43,-146.46 85.57 02/22/2024 21:33:37 75.45,-146.42 85.59 3.26 66
10 02/25/2024 12:05:17 74.82, -3.01 83.96 02/25/2024 12:04:12 74.75, -6.03 84.00 88.57 65
11 02/25/2024 12:54:50 -75.36, 163.17 95.48 02/25/2024 12:54:41 -75.38, 163.09 95.45 3.34 9
12 02/25/2024 13:44:15 75.43, -29.37 84.59 02/25/2024 13:45:19 75.46, -29.35 84.61 3.05 64
13 02/28/2024 04:16:59 74.80, 114.14 82.94 02/28/2024 04:15:54 74.75, 111.01 82.99 91.68 65
14 02/28/2024 05:06:33 -75.39, -79.80 96.45 02/28/2024 05:06:23 -75.38, -79.87 96.46 2.67 10
15 02/28/2024 05:55:58 75.47, 87.64 83.63 02/28/2024 05:57:01 75.45, 87.69 83.60 2.57 63
16 03/01/2024 20:28:40 74.83,-128.79 81.95 03/01/2024 20:27:35 74.78,-131.84 82.00 89.09 65
17 03/01/2024 21:18:14 -75.41, 37.27 97.45 03/01/2024 21:18:04 -75.41, 37.29 97.45 0.86 10



Historial Predications of SNOs between AQUA and METOP-B
